Hourly Weather Rusinovka

Today, 23 April, Friday

Time Temperature Precipitation Wind Pressure Humidity
00:00 +7°C° 0.9 mm 2 mps 742 mmHg 91%
01:00 +7°C° 0.9 mm 2 mps 742 mmHg 91%
02:00 +5°C° 0.9 mm 3 mps 742 mmHg 90%
03:00 +5°C° 0.2 mm 3 mps 742 mmHg 88%
04:00 +5°C° 0.2 mm 3 mps 742 mmHg 87%
05:00 +4°C° 0.2 mm 3 mps 743 mmHg 85%
06:00 +5°C° 0 mm 3 mps 743 mmHg 80%
07:00 +5°C° 0 mm 4 mps 743 mmHg 75%
08:00 +5°C° 0 mm 4 mps 743 mmHg 70%
09:00 +6°C° 0 mm 5 mps 743 mmHg 63%
10:00 +7°C° 0 mm 6 mps 743 mmHg 56%
11:00 +8°C° 0 mm 7 mps 743 mmHg 49%
12:00 +8°C° 0 mm 6 mps 743 mmHg 47%
13:00 +8°C° 0 mm 6 mps 743 mmHg 46%
14:00 +8°C° 0 mm 6 mps 743 mmHg 44%
15:00 +8°C° 0 mm 6 mps 743 mmHg 48%
16:00 +7°C° 0 mm 5 mps 743 mmHg 52%
17:00 +6°C° 0 mm 5 mps 744 mmHg 56%
18:00 +5°C° 0 mm 4 mps 744 mmHg 61%
19:00 +4°C° 0 mm 3 mps 744 mmHg 66%
20:00 +3°C° 0 mm 3 mps 743 mmHg 72%
21:00 +3°C° 0 mm 2 mps 743 mmHg 75%
22:00 +3°C° 0 mm 2 mps 743 mmHg 78%
23:00 +2°C° 0 mm 2 mps 743 mmHg 81%

Tomorrow, 24 April, Saturday

Time Temperature Precipitation Wind Pressure Humidity
00:00 +2°C° 0 mm 2 mps 743 mmHg 82%
01:00 +2°C° 0 mm 2 mps 742 mmHg 83%
02:00 +2°C° 0 mm 2 mps 742 mmHg 84%
03:00 +2°C° 0.3 mm 2 mps 742 mmHg 89%
04:00 0°C° 0.3 mm 3 mps 742 mmHg 93%
05:00 0°C° 0.3 mm 3 mps 742 mmHg 98%
06:00 -1°C° 1.1 mm 4 mps 742 mmHg 97%
07:00 -1°C° 1.1 mm 5 mps 742 mmHg 96%
08:00 -1°C° 1.1 mm 5 mps 742 mmHg 96%
09:00 -2°C° 1 mm 6 mps 742 mmHg 93%
10:00 -2°C° 1 mm 6 mps 743 mmHg 90%
11:00 -1°C° 1 mm 6 mps 743 mmHg 87%
12:00 -1°C° 0.1 mm 6 mps 743 mmHg 83%
13:00 0°C° 0.1 mm 7 mps 744 mmHg 78%
14:00 0°C° 0.1 mm 7 mps 744 mmHg 74%
15:00 +1°C° 0.1 mm 6 mps 744 mmHg 73%
16:00 +2°C° 0.1 mm 6 mps 744 mmHg 71%
17:00 +2°C° 0.1 mm 5 mps 744 mmHg 70%
18:00 +1°C° 0 mm 4 mps 744 mmHg 74%
19:00 0°C° 0 mm 4 mps 745 mmHg 79%
20:00 0°C° 0 mm 3 mps 745 mmHg 83%
21:00 0°C° 0 mm 3 mps 745 mmHg 84%
22:00 -2°C° 0 mm 4 mps 744 mmHg 86%
23:00 -2°C° 0 mm 4 mps 744 mmHg 87%

Day after tomorrow, 25 April, Sunday

Time Temperature Precipitation Wind Pressure Humidity
00:00 -2°C° 0 mm 4 mps 744 mmHg 88%
01:00 -3°C° 0 mm 4 mps 744 mmHg 90%
02:00 -3°C° 0 mm 4 mps 744 mmHg 92%
03:00 -3°C° 0 mm 4 mps 744 mmHg 91%
04:00 -2°C° 0 mm 3 mps 744 mmHg 91%
05:00 -2°C° 0 mm 3 mps 744 mmHg 90%
06:00 -1°C° 0 mm 3 mps 744 mmHg 84%
07:00 -1°C° 0 mm 4 mps 744 mmHg 78%
08:00 0°C° 0 mm 4 mps 744 mmHg 72%
09:00 +1°C° 0 mm 5 mps 744 mmHg 66%
10:00 +1°C° 0 mm 5 mps 744 mmHg 60%
11:00 +2°C° 0 mm 5 mps 744 mmHg 54%
12:00 +3°C° 0.1 mm 5 mps 744 mmHg 54%
13:00 +3°C° 0.1 mm 6 mps 744 mmHg 54%
14:00 +3°C° 0.1 mm 6 mps 744 mmHg 54%
15:00 +3°C° 0.1 mm 5 mps 744 mmHg 56%
16:00 +3°C° 0.1 mm 5 mps 744 mmHg 58%
17:00 +3°C° 0.1 mm 5 mps 744 mmHg 59%
18:00 +3°C° 0 mm 4 mps 744 mmHg 66%
19:00 0°C° 0 mm 4 mps 744 mmHg 72%
20:00 0°C° 0 mm 3 mps 744 mmHg 78%
21:00 -1°C° 0 mm 3 mps 744 mmHg 80%
22:00 -1°C° 0 mm 3 mps 744 mmHg 82%
23:00 -2°C° 0 mm 3 mps 744 mmHg 84%

26 April, Monday

Time Temperature Precipitation Wind Pressure Humidity
00:00 -2°C° 0 mm 3 mps 744 mmHg 85%
01:00 -2°C° 0 mm 3 mps 744 mmHg 85%
02:00 -2°C° 0 mm 2 mps 744 mmHg 85%
03:00 -2°C° 0 mm 2 mps 744 mmHg 85%
04:00 -2°C° 0 mm 2 mps 744 mmHg 84%
05:00 -2°C° 0 mm 2 mps 744 mmHg 84%
06:00 -1°C° 0 mm 2 mps 744 mmHg 80%
07:00 +1°C° 0 mm 3 mps 744 mmHg 76%
08:00 +2°C° 0 mm 3 mps 744 mmHg 72%
09:00 +3°C° 0.2 mm 3 mps 743 mmHg 66%
10:00 +3°C° 0.2 mm 4 mps 743 mmHg 60%
11:00 +4°C° 0.2 mm 4 mps 743 mmHg 55%
12:00 +5°C° 0.1 mm 4 mps 743 mmHg 50%
13:00 +5°C° 0.1 mm 5 mps 743 mmHg 45%
14:00 +5°C° 0.1 mm 6 mps 742 mmHg 41%
15:00 +5°C° 0 mm 5 mps 742 mmHg 46%
16:00 +5°C° 0 mm 5 mps 742 mmHg 50%
17:00 +5°C° 0 mm 4 mps 742 mmHg 55%
18:00 +3°C° 0.1 mm 4 mps 742 mmHg 63%
19:00 +2°C° 0.1 mm 3 mps 742 mmHg 71%
20:00 +1°C° 0.1 mm 3 mps 742 mmHg 79%
21:00 0°C° 0 mm 3 mps 742 mmHg 81%
22:00 0°C° 0 mm 3 mps 742 mmHg 83%
23:00 -1°C° 0 mm 3 mps 742 mmHg 85%

27 April, Tuesday

Time Temperature Precipitation Wind Pressure Humidity
00:00 -1°C° 0 mm 3 mps 742 mmHg 87%
01:00 -2°C° 0 mm 3 mps 742 mmHg 90%
02:00 -2°C° 0 mm 3 mps 742 mmHg 92%
03:00 -2°C° 0 mm 3 mps 742 mmHg 92%
04:00 -2°C° 0 mm 3 mps 742 mmHg 93%
05:00 -2°C° 0 mm 2 mps 742 mmHg 93%
06:00 -1°C° 0 mm 3 mps 742 mmHg 85%
07:00 +1°C° 0 mm 3 mps 742 mmHg 77%
08:00 +3°C° 0 mm 4 mps 743 mmHg 69%
09:00 +4°C° 0.2 mm 4 mps 743 mmHg 62%
10:00 +5°C° 0.2 mm 4 mps 743 mmHg 56%
11:00 +5°C° 0.2 mm 5 mps 743 mmHg 49%
12:00 +6°C° 0.1 mm 5 mps 743 mmHg 48%
13:00 +6°C° 0.1 mm 5 mps 743 mmHg 47%
14:00 +7°C° 0.1 mm 5 mps 743 mmHg 46%
15:00 +7°C° 0 mm 5 mps 743 mmHg 46%
16:00 +6°C° 0 mm 4 mps 743 mmHg 46%
17:00 +6°C° 0 mm 4 mps 743 mmHg 46%
18:00 +5°C° 0 mm 3 mps 743 mmHg 53%
19:00 +4°C° 0 mm 2 mps 744 mmHg 59%
20:00 +3°C° 0 mm 2 mps 744 mmHg 65%
21:00 +3°C° 0 mm 1 mps 744 mmHg 68%
22:00 +3°C° 0 mm 1 mps 744 mmHg 71%
23:00 +1°C° 0 mm 0 mps 744 mmHg 73%

28 April, Wednesday

Time Temperature Precipitation Wind Pressure Humidity
00:00 +2°C° 0 mm 1 mps 744 mmHg 73%
01:00 +2°C° 0 mm 1 mps 745 mmHg 74%
02:00 +1°C° 0 mm 2 mps 745 mmHg 74%
03:00 +1°C° 0 mm 2 mps 745 mmHg 73%
04:00 +1°C° 0 mm 2 mps 745 mmHg 73%
05:00 +1°C° 0 mm 2 mps 745 mmHg 73%
06:00 +2°C° 0 mm 3 mps 745 mmHg 69%
07:00 +3°C° 0 mm 3 mps 745 mmHg 66%
08:00 +5°C° 0 mm 4 mps 745 mmHg 63%
09:00 +6°C° 0 mm 5 mps 744 mmHg 60%
10:00 +7°C° 0 mm 5 mps 744 mmHg 57%
11:00 +8°C° 0 mm 6 mps 744 mmHg 55%
12:00 +6°C° 0.3 mm 7 mps 743 mmHg 64%
13:00 +5°C° 0.3 mm 7 mps 743 mmHg 73%
14:00 +4°C° 0.3 mm 7 mps 743 mmHg 83%
15:00 +4°C° 1 mm 7 mps 742 mmHg 86%
16:00 +4°C° 1 mm 7 mps 742 mmHg 90%
17:00 +3°C° 1 mm 7 mps 741 mmHg 94%
18:00 +3°C° 0.8 mm 6 mps 741 mmHg 94%
19:00 +4°C° 0.8 mm 6 mps 741 mmHg 94%
20:00 +4°C° 0.8 mm 6 mps 741 mmHg 94%
21:00 +4°C° 0.2 mm 6 mps 740 mmHg 94%
22:00 +5°C° 0.2 mm 6 mps 740 mmHg 94%
23:00 +5°C° 0.2 mm 6 mps 740 mmHg 94%
Show more